Tracking 27401 objects as of 4-Jun-2023
HD Live streaming from Space Station
objects crossing your sky now

INTELSAT 1002

Track INTELSAT 1002 now!
INTELSAT 1002 is classified as:


NORAD ID: 28358
Int'l Code: 2004-022A
Perigee: 35,789.0 km
Apogee: 35,799.2 km
Inclination: 0.0 °
Period: 1,436.1 minutes
Semi major axis: 42165 km
RCS: 21.2048 m2 (large)
Launch date: June 16, 2004
Source: International Telecommunications Satellite Organization (ITSO)
Launch site: TYURATAM MISSILE AND SPACE COMPLEX (TTMTR)

Television, data, and other telecommunication services to Europe, Africa and the Middle East; 36 Ku-band, 70 C-band transponders.
Your satellite tracking list
Your tracking list is empty




NASA's NSSDC Master Catalog

Two Line Element Set (TLE):
1 28358U 04022A   23154.44077053  .00000008  00000-0  00000-0 0  9997
2 28358   0.0381  82.5784 0001205   9.4660 317.2978  1.00270496 69413
Source of the keplerian elements: AFSPC